Regional Weather Roundup
Issued by NWS

Home | Current Version | Previous Version | Graphics & Text | Print | Product List | Glossary On
Versions: 1 2 3 4 5 6 7 8 9 10 11 12 13 14 15 16 17 18 19 20 21 22 23 24 25 26 27 28 29 30 31 32 33 34 35 36 37 38 39 40 41 42 43 44 45 46 47 48 49 50
000
ASUS43 KOAX 270010
RWRNE

WEATHER ROUNDUP FOR NEBRASKA
NATIONAL WEATHER SERVICE OMAHA NE
700 PM CDT THU MAR 26 2015

NOTES: SATELLITE DATA IS BEING USED TO AUGMENT CLOUD COVER ABOVE
       12000 FEET.
       "FAIR" INDICATES FEW OR NO CLOUDS BELOW 12,000 FEET WITH NO
       SIGNIFICANT WEATHER AND/OR OBSTRUCTIONS TO VISIBILITY.

  * THESE STATIONS DO NOT REPORT WEATHER SUCH AS RAIN...SNOW OR FOG.

NEZ001>004-019>022-054>056-270100-
NEBRASKA PANHANDLE

CITY           SKY/WX    TMP DP  RH WIND       PRES   REMARKS
SCOTTSBLUFF    CLOUDY    53  34  48 N18G28    30.11S
6HR MIN TEMP:  51; 6HR MAX TEMP:  56;

ALLIANCE       CLOUDY    49  34  56 NW14G24   30.11R
6HR MIN TEMP:  47; 6HR MAX TEMP:  55; 6HR PCP: TRACE;

CHADRON        CLOUDY    49  30  48 NE9       30.13R
6HR MIN TEMP:  48; 6HR MAX TEMP:  55; 6HR PCP: TRACE;

KIMBALL        MOSUNNY   53  27  37 N13G20    30.10F
SIDNEY         CLOUDY    52  30  43 N25       30.12R
6HR MIN TEMP:  52; 6HR MAX TEMP:  57;

$$

NEZ057>060-069>072-079>082-270100-
SOUTHWEST NEBRASKA

CITY           SKY/WX    TMP DP  RH WIND       PRES   REMARKS
NORTH PLATTE   CLOUDY    50  29  44 N21G30    30.08R
6HR MIN TEMP:  50; 6HR MAX TEMP:  60; 6HR PCP: TRACE;

IMPERIAL         N/A     54  29  38 N20       30.09R
6HR MIN TEMP:  54; 6HR MAX TEMP:  60;

LEXINGTON      PTSUNNY   55  26  33 N26G33    30.06R
MCCOOK         PTSUNNY   59  24  26 N22       30.05R
6HR MIN TEMP:  57; 6HR MAX TEMP:  64; 6HR PCP: TRACE;

OGALLALA       CLOUDY    53  32  45 NW13G20   30.09R
$$

NEZ005>010-023>029-035>040-094-270100-
NORTH CENTRAL NEBRASKA

CITY           SKY/WX    TMP DP  RH WIND       PRES   REMARKS
VALENTINE      CLOUDY    35  27  72 E8        30.19R WCI  29
6HR MIN TEMP:  34; 6HR MAX TEMP:  53;

AINSWORTH      CLOUDY    34  29  83 NE8       30.17R WCI  27
BROKEN BOW     MOCLDY    40  31  70 NE21G29   30.11R WCI  30
6HR MIN TEMP:  40; 6HR MAX TEMP:  58; 6HR PCP: TRACE;

O`NEILL        CLOUDY    34  32  94 N7        30.17R WCI  28
ORD            CLOUDY    36  27  69 NE12      30.14R WCI  28
6HR MIN TEMP:  36; 6HR MAX TEMP:  52; 6HR PCP: TRACE;

THEDFORD       MOSUNNY   41  31  68 N14G23    30.13R
$$

NEZ041-046>049-061>064-073>077-083>087-270100-
SOUTH CENTRAL NEBRASKA

CITY           SKY/WX    TMP DP  RH WIND       PRES   REMARKS
GRAND ISLAND   CLOUDY    37  32  82 NE21G28   30.10R WCI  26
6HR MIN TEMP:  37; 6HR MAX TEMP:  51; 6HR PCP: TRACE;

AURORA         CLOUDY    37  35  90 NE21      30.10R WCI  27
HASTINGS       CLOUDY    42  34  73 E18G25    30.05R
6HR MIN TEMP:  42; 6HR MAX TEMP:  55; 6HR PCP: TRACE;

HEBRON         CLOUDY    46  29  53 E16       30.03F
HOLDREGE       MOCLDY    54  27  35 N25G35    30.04R
KEARNEY *      CLOUDY    54  28  37 NE28G35   30.04R
YORK           MIX PCPN  36  36 100 NE18G24   30.12R WCI  25
$$

NEZ011>018-030>034-042>045-270100-
NORTHEAST NEBRASKA

CITY           SKY/WX    TMP DP  RH WIND       PRES   REMARKS
NORFOLK        CLOUDY    35  31  85 N12       30.15R WCI  27
6HR MIN TEMP:  33; 6HR MAX TEMP:  43; 6HR PCP:  0.12;

ALBION         LGT SNOW  33  31  90 NE9       30.15R WCI  25
BLAIR          CLOUDY    36  32  85 N8        30.14S WCI  30
COLUMBUS *     CLOUDY    34  28  80 NE8       30.16R WCI  27
FREMONT        LGT RAIN  37  35  90 N8        30.16R WCI  31
TEKAMAH        LGT RAIN  37  32  82 N13G25    30.17S WCI  29
6HR MIN TEMP:  36; 6HR MAX TEMP:  50; 6HR PCP: TRACE;

WAYNE          CLOUDY    35  32  88 N8        30.17R WCI  29
$$

NEZ050>053-065>068-078-088>093-270100-
SOUTHEAST NEBRASKA

CITY           SKY/WX    TMP DP  RH WIND       PRES   REMARKS
LINCOLN        LGT SNOW  35  33  92 NE13      30.15R FOG     WCI  26
6HR MIN TEMP:  35; 6HR MAX TEMP:  52; 6HR PCP:  0.02;

OMAHA EPPLEY   LGT RAIN  36  33  89 N10       30.16R WCI  28
6HR MIN TEMP:  36; 6HR MAX TEMP:  50; 6HR PCP: TRACE;

BEATRICE       DRIZZLE   40  35  83 NE10      30.10S WCI  34
FALLS CITY     LGT RAIN  45  28  51 NW16G22   30.11R
6HR MIN TEMP:  45; 6HR MAX TEMP:  51; 6HR PCP: TRACE;

NEBRASKA CITY  LGT RAIN  37  33  85 N12       30.14R WCI  30
PLATTSMOUTH    LGT RAIN  35  32  90 N10       30.15R WCI  27
$$

NEZ044-045-051>053-067-270100-
OMAHA AREA

CITY           SKY/WX    TMP DP  RH WIND       PRES   REMARKS
OMAHA EPPLEY   LGT RAIN  36  33  89 N10       30.16R WCI  28
6HR MIN TEMP:  36; 6HR MAX TEMP:  50; 6HR PCP: TRACE;

BLAIR          CLOUDY    36  32  85 N8        30.14S WCI  30
FREMONT        LGT RAIN  37  35  90 N8        30.16R WCI  31
MILLARD        CLOUDY    36  33  87 CALM      30.15F
OFFUTT AFB     MOCLDY    36  32  87 N7        30.15S WCI  30
PLATTSMOUTH    LGT RAIN  35  32  90 N10       30.15R WCI  27
WAHOO          LGT RAIN  35  33  92 N3        30.14F
$$


USA.gov is the U.S. government's official web portal to all federal, state and local government web resources and services.